Wind_Speed
25 25 25 24 23 22 21 21 20 20 19 19 18 18 18 18 17 18 18 18 18 17 17 17 17 17 16 16 16 16 16 15 15 15 14 14 14 14 14 14 14 14 14
26 25 25 25 24 23 23 22 22 22 21 20 20 20 20 20 19 19 19 20 20 19 18 18 19 19 19 18 18 18 18 18 17 17 17 17 16 16 16 16 16 16 17
27 26 26 26 25 25 25 25 24 23 23 22 22 21 21 21 20 20 21 21 21 21 20 19 20 20 21 20 20 20 20 20 19 19 19 19 19 19 18 18 18 19 19
27 27 27 27 27 26 26 26 26 25 25 24 24 24 23 23 22 22 22 22 23 22 22 22 21 22 22 22 23 22 22 22 21 21 21 21 21 21 21 21 21 21 21
27 28 28 27 27 27 27 27 27 27 26 26 26 25 25 24 24 24 23 23 23 24 24 23 23 23 23 23 24 24 24 23 23 23 23 23 23 23 23 23 23 23 24
27 28 28 28 28 28 28 28 28 28 28 28 27 27 27 26 26 25 25 25 25 25 25 25 25 25 24 24 25 24 25 25 24 25 25 25 25 25 24 25 25 25 26
28 28 27 28 28 28 28 29 30 29 29 29 29 28 28 28 27 27 27 27 27 27 26 26 27 26 26 26 26 26 26 26 26 26 26 26 27 27 27 27 27 28 28
26 26 27 28 28 28 29 29 29 30 29 29 30 30 29 28 28 28 28 28 28 28 28 28 28 28 28 28 27 27 27 27 28 28 28 28 28 28 28 28 28 29 29
27 27 28 28 29 29 29 30 29 30 30 30 30 30 29 29 29 29 29 29 29 29 30 30 29 29 29 29 28 27 28 28 28 29 30 29 29 29 29 30 30 30 30
26 27 28 29 29 29 29 29 30 30 30 31 31 32 32 31 31 30 29 29 30 31 30 31 31 30 31 30 29 28 28 29 29 30 30 31 30 30 30 30 31 31 31
26 27 28 29 29 30 30 30 30 30 30 30 32 32 32 32 31 31 30 30 30 31 31 31 31 31 32 32 31 30 29 30 30 31 32 33 31 31 31 31 31 32 33
27 28 29 30 30 30 30 30 30 30 30 30 30 31 31 31 31 32 31 31 31 31 31 31 31 31 31 32 31 30 30 30 30 31 32 32 33 33 32 32 32 33 34
27 28 28 28 29 30 30 31 31 31 31 31 31 31 31 31 31 32 32 32 32 32 32 32 32 32 32 32 33 32 31 31 31 32 32 33 34 34 33 33 33 34 34
26 27 27 28 29 29 30 30 31 31 31 32 32 32 32 32 31 31 32 32 32 31 31 32 32 33 33 33 33 33 33 32 31 32 32 33 34 34 34 34 34 34 35
27 27 28 28 28 29 29 30 30 30 31 31 31 31 31 31 31 31 31 31 31 32 31 31 32 32 33 33 32 32 32 32 32 32 32 32 33 34 34 35 35 34 35
28 29 29 30 30 30 30 30 30 30 30 30 30 30 31 31 31 31 31 31 32 31 31 30 30 31 32 32 32 31 31 32 31 33 32 32 32 34 34 34 33 33 33
29 30 30 31 31 31 31 31 31 31 31 30 30 30 30 31 31 31 31 30 30 31 30 29 29 30 31 30 30 30 30 31 31 30 31 31 31 32 33 33 32 32 32
30 30 31 31 31 31 31 32 32 32 32 31 31 30 30 30 30 29 28 28 28 28 29 29 29 29 29 29 29 30 29 28 28 28 29 30 31 31 30 30 30 30 30
29 30 30 30 29 30 30 31 31 31 31 31 31 30 30 29 28 27 27 26 26 27 27 27 27 28 28 28 28 27 27 27 27 27 28 28 29 30 29 28 27 26 26
29 29 29 29 29 30 30 30 30 30 30 30 30 30 29 29 28 27 27 26 26 26 26 26 26 27 27 26 26 25 26 26 25 26 26 26 26 26 25 24 23 23 22
28 28 29 29 29 29 28 29 29 29 29 29 28 28 27 27 26 26 26 25 24 24 24 24 24 24 24 25 24 24 24 24 24 25 24 24 24 23 21 20 19 19 20
27 27 27 28 28 28 28 28 27 27 27 27 26 25 24 24 23 23 23 22 21 21 22 22 21 21 22 22 21 22 22 22 22 22 22 21 20 18 17 16 17 17 18
26 26 25 26 26 26 26 26 25 25 24 23 22 22 21 21 21 21 21 20 19 19 19 19 19 19 19 19 19 19 19 20 20 19 18 17 15 15 14 14 15 16 16
23 23 23 22 23 22 22 22 23 22 20 20 20 19 19 18 19 18 18 17 16 15 15 16 16 16 16 16 16 15 15 15 16 15 14 12 12 12 12 13 14 14 14
21 21 21 20 20 20 19 18 18 17 18 17 17 17 16 15 15 15 15 14 14 14 13 13 13 13 13 13 13 12 12 12 12 12 11 10 10 10 11 11 12 12 12
18 18 18 18 18 17 16 16 15 15 16 16 16 15 15 14 13 13 13 12 12 12 12 12 12 12 11 11 11 11 10 10 9 9 9 8 9 9 9 9 9 10 10
Wind_Direction
241 243 245 246 249 250 250 250 251 254 257 259 260 261 260 261 263 263 263 263 264 263 264 265 264 262 259 256 255 253 250 249 249 250 250 251 251 253 255 257 260 262 263
242 244 246 248 250 252 252 252 253 255 257 259 261 262 263 264 264 265 265 264 262 261 261 263 264 263 261 260 256 254 253 249 250 252 253 254 254 255 256 259 263 265 266
244 246 248 250 252 253 253 254 256 258 259 260 261 261 263 265 265 265 266 266 263 262 262 264 267 267 265 262 259 256 253 252 253 253 253 254 256 258 258 260 262 265 267
247 248 251 251 253 255 255 257 258 259 260 261 262 262 263 265 266 267 266 267 264 262 262 264 267 269 266 264 263 261 257 256 256 256 255 255 257 258 260 261 263 265 268
250 250 251 253 253 255 257 258 259 260 260 262 263 264 265 266 266 267 267 267 265 263 263 264 265 267 266 264 263 263 262 261 259 257 257 258 259 260 261 263 264 266 269
251 254 254 255 256 257 259 260 261 261 262 262 263 265 265 266 266 268 267 266 264 262 263 264 264 266 265 263 262 262 262 262 260 258 257 259 261 262 264 264 265 268 270
253 254 255 257 258 259 261 262 261 262 263 263 264 265 265 265 266 267 268 268 265 263 263 265 265 265 263 263 263 262 261 262 260 260 259 260 261 263 266 267 268 269 271
256 257 260 260 260 261 262 263 263 263 263 264 265 265 265 265 266 267 268 267 265 263 262 263 265 265 264 263 264 263 261 261 261 262 261 261 263 265 267 268 269 270 273
259 261 262 263 263 264 265 266 265 265 264 265 265 266 266 266 266 266 267 267 266 264 263 262 263 266 264 263 263 263 261 261 262 261 261 261 263 266 267 268 269 271 274
261 263 264 265 265 266 267 267 266 267 267 265 265 265 264 264 266 266 266 266 266 265 264 263 263 265 264 262 262 261 259 260 261 260 261 261 265 267 270 271 272 273 275
264 264 264 265 267 267 268 268 268 267 268 267 265 265 264 265 266 266 266 266 267 266 265 265 264 264 264 262 261 259 258 260 260 261 262 263 266 269 271 273 274 274 275
265 265 265 266 266 267 268 269 268 267 266 266 266 265 265 266 268 266 265 265 266 267 266 265 265 265 265 262 260 257 257 258 260 260 262 263 264 267 270 272 274 274 274
267 268 267 266 267 267 268 269 268 267 266 265 265 266 267 268 268 267 265 265 265 265 265 263 262 264 266 263 259 257 257 260 260 261 261 263 265 267 268 271 273 273 273
267 268 268 269 269 268 268 268 268 266 265 264 264 266 268 268 268 268 267 265 264 263 263 263 262 262 263 263 262 261 262 263 263 264 265 265 266 266 267 271 273 273 274
270 269 270 270 269 269 269 268 268 267 265 264 264 265 267 268 269 270 268 265 264 263 262 263 262 261 261 263 263 263 264 266 267 266 266 266 266 266 268 272 273 274 276
273 272 271 270 270 270 269 269 268 267 265 265 265 266 267 268 268 269 268 265 263 262 262 262 261 260 262 264 265 264 265 266 268 268 266 267 269 269 269 271 272 275 278
273 273 273 272 271 270 269 269 268 267 266 265 265 265 266 267 268 269 268 265 262 260 261 261 261 261 263 264 266 266 268 267 269 271 269 270 271 272 272 274 276 280 283
273 272 272 272 270 269 269 269 269 268 266 265 265 265 266 266 266 266 266 264 263 261 261 260 260 260 261 262 264 267 269 269 272 273 273 273 277 280 282 282 281 284 286
273 272 272 271 271 270 269 269 269 268 266 265 265 265 265 263 264 263 263 263 262 261 260 261 260 259 260 262 264 266 268 270 273 274 276 277 280 281 284 285 286 287 288
275 274 272 270 270 270 270 270 270 270 267 266 265 265 264 262 262 262 262 261 261 261 261 261 261 259 260 261 263 266 268 270 273 275 278 280 281 282 284 286 288 289 290
275 274 273 271 270 270 270 270 270 270 269 267 265 264 263 262 261 261 260 260 261 261 260 260 261 259 258 260 263 264 266 269 272 276 280 282 283 284 285 289 292 293 293
276 276 274 273 272 270 270 270 270 269 268 266 265 262 261 260 259 258 258 259 259 258 259 259 260 260 260 261 262 265 267 271 275 278 280 282 284 285 287 293 295 297 301
276 276 276 274 272 271 271 270 270 270 268 264 261 259 258 257 256 255 253 253 256 256 255 256 257 258 260 262 264 266 268 273 276 277 278 279 281 287 288 291 297 302 305
277 276 276 274 273 271 270 270 269 266 264 263 261 259 257 255 253 251 249 249 252 253 253 254 255 255 256 260 264 267 270 272 272 273 274 278 283 288 291 296 301 304 306
278 276 274 272 271 272 273 270 265 262 260 259 259 258 255 254 251 248 247 248 249 248 250 252 250 251 251 254 254 258 263 267 271 270 274 279 282 285 292 299 303 307 310
277 275 274 272 272 272 269 266 260 257 255 254 253 250 248 247 246 244 244 244 243 244 245 246 247 249 250 252 249 250 256 260 261 265 271 274 277 286 296 302 307 311 314
Height
5881 5883 5884 5884 5885 5887 5888 5888 5889 5889 5890 5890 5891 5891 5891 5891 5891 5891 5891 5891 5892 5892 5892 5892 5892 5892 5893 5893 5894 5894 5894 5894 5895 5896 5896 5896 5896 5896 5896 5896 5897 5896 5896
5877 5878 5879 5880 5881 5882 5883 5884 5885 5885 5886 5886 5886 5886 5887 5887 5887 5887 5887 5887 5887 5887 5888 5888 5888 5889 5889 5889 5889 5890 5890 5891 5891 5892 5892 5893 5893 5893 5893 5893 5893 5893 5893
5872 5873 5875 5876 5876 5877 5878 5879 5880 5880 5881 5882 5882 5882 5882 5882 5882 5883 5883 5883 5883 5883 5883 5884 5884 5884 5884 5884 5885 5885 5886 5886 5887 5887 5888 5888 5889 5889 5889 5889 5889 5889 5889
5867 5868 5869 5870 5871 5872 5873 5874 5875 5876 5876 5877 5877 5877 5877 5878 5878 5878 5878 5878 5878 5878 5879 5879 5879 5880 5880 5880 5880 5881 5881 5881 5882 5882 5883 5883 5884 5884 5884 5884 5885 5885 5884
5862 5863 5864 5865 5866 5867 5868 5869 5870 5871 5872 5872 5872 5872 5872 5872 5872 5872 5873 5873 5873 5873 5874 5874 5874 5874 5875 5875 5875 5875 5876 5876 5877 5877 5878 5878 5878 5879 5879 5879 5879 5880 5879
5857 5858 5859 5859 5860 5862 5863 5864 5864 5865 5866 5866 5866 5866 5867 5867 5867 5867 5867 5867 5867 5868 5868 5868 5868 5869 5869 5869 5870 5870 5870 5871 5871 5871 5872 5873 5873 5873 5874 5874 5874 5874 5874
5852 5853 5853 5854 5855 5856 5857 5857 5858 5858 5859 5860 5860 5860 5861 5861 5861 5861 5861 5861 5862 5862 5862 5862 5862 5863 5863 5863 5864 5864 5865 5865 5865 5866 5866 5867 5867 5868 5868 5868 5868 5868 5867
5846 5847 5847 5848 5848 5849 5850 5850 5851 5852 5853 5853 5854 5854 5855 5855 5855 5855 5855 5855 5855 5855 5856 5856 5856 5857 5857 5857 5858 5858 5859 5859 5859 5860 5860 5860 5861 5861 5861 5861 5861 5861 5861
5840 5841 5841 5841 5842 5843 5844 5844 5844 5845 5846 5846 5846 5847 5848 5848 5848 5849 5848 5848 5848 5849 5849 5849 5850 5850 5851 5851 5851 5852 5852 5853 5853 5853 5854 5854 5854 5855 5855 5855 5855 5854 5854
5835 5835 5835 5835 5836 5836 5837 5837 5838 5838 5839 5839 5840 5840 5840 5841 5841 5842 5842 5842 5842 5842 5842 5843 5843 5844 5844 5844 5845 5845 5846 5846 5846 5847 5847 5847 5848 5848 5848 5848 5848 5847 5846
5829 5829 5829 5829 5830 5830 5830 5830 5830 5831 5831 5832 5832 5832 5833 5834 5834 5835 5835 5835 5835 5835 5835 5836 5836 5837 5837 5837 5838 5838 5839 5839 5840 5840 5840 5841 5841 5841 5841 5841 5840 5840 5839
5823 5822 5822 5823 5823 5823 5823 5823 5823 5823 5824 5825 5825 5826 5826 5827 5827 5827 5827 5828 5828 5828 5829 5829 5829 5830 5830 5830 5830 5831 5831 5832 5833 5833 5833 5833 5834 5834 5833 5833 5832 5831 5831
5816 5816 5815 5815 5815 5815 5815 5816 5816 5816 5817 5818 5818 5819 5819 5820 5820 5820 5820 5820 5820 5821 5821 5822 5822 5823 5823 5823 5823 5823 5824 5825 5825 5825 5826 5826 5826 5826 5826 5825 5824 5824 5822
5810 5809 5808 5808 5808 5808 5808 5808 5808 5809 5809 5810 5811 5811 5812 5812 5812 5812 5812 5812 5812 5813 5814 5814 5815 5815 5815 5816 5816 5816 5817 5817 5818 5818 5818 5818 5818 5818 5818 5817 5816 5815 5814
5803 5802 5801 5801 5801 5800 5800 5800 5800 5801 5801 5802 5803 5803 5804 5804 5804 5804 5804 5804 5805 5805 5806 5807 5807 5807 5808 5808 5809 5809 5810 5810 5811 5810 5810 5810 5810 5810 5809 5809 5808 5807 5805
5795 5794 5794 5794 5793 5793 5793 5793 5793 5793 5793 5794 5795 5795 5796 5796 5796 5796 5796 5796 5796 5797 5798 5799 5799 5800 5801 5801 5802 5802 5802 5803 5803 5803 5803 5803 5802 5802 5801 5801 5799 5798 5797
5787 5786 5786 5785 5785 5785 5785 5785 5785 5785 5785 5786 5787 5787 5788 5788 5788 5788 5788 5788 5788 5789 5790 5791 5792 5793 5794 5794 5795 5795 5796 5796 5796 5797 5796 5796 5795 5794 5793 5793 5792 5790 5789
5778 5778 5777 5777 5777 5777 5776 5777 5777 5777 5777 5778 5779 5779 5780 5780 5780 5780 5780 5781 5781 5782 5783 5784 5785 5786 5787 5787 5788 5789 5789 5790 5790 5790 5789 5789 5788 5787 5786 5785 5784 5783 5782
5770 5769 5769 5768 5768 5768 5768 5768 5768 5769 5769 5770 5770 5771 5771 5772 5772 5773 5773 5774 5774 5775 5776 5777 5778 5779 5780 5781 5782 5783 5783 5783 5784 5783 5783 5782 5782 5781 5780 5779 5778 5777 5776
5762 5761 5760 5760 5760 5760 5760 5760 5760 5760 5761 5761 5762 5762 5763 5764 5765 5765 5766 5767 5767 5768 5769 5770 5771 5772 5773 5774 5775 5776 5777 5777 5778 5777 5777 5777 5776 5775 5774 5773 5772 5771 5770
5754 5753 5753 5752 5752 5752 5752 5752 5752 5752 5752 5753 5753 5754 5755 5756 5757 5758 5759 5760 5761 5761 5762 5763 5765 5766 5767 5768 5769 5770 5771 5771 5772 5771 5771 5771 5771 5770 5769 5768 5767 5766 5765
5747 5746 5745 5744 5744 5744 5744 5744 5745 5745 5745 5745 5745 5746 5747 5749 5750 5751 5752 5753 5755 5756 5757 5758 5759 5760 5761 5762 5763 5764 5765 5766 5766 5766 5766 5766 5765 5764 5764 5763 5763 5762 5761
5740 5739 5738 5737 5737 5737 5736 5737 5737 5737 5737 5738 5739 5740 5741 5742 5743 5745 5746 5748 5749 5750 5751 5752 5753 5755 5756 5757 5758 5759 5760 5761 5761 5761 5761 5761 5760 5760 5760 5760 5759 5758 5757
5733 5732 5731 5731 5730 5730 5730 5730 5730 5730 5731 5732 5733 5734 5735 5737 5738 5739 5741 5743 5744 5745 5746 5747 5749 5750 5751 5752 5753 5754 5755 5756 5756 5756 5757 5757 5757 5757 5756 5756 5755 5754 5753
5727 5726 5725 5725 5724 5724 5724 5724 5724 5725 5726 5727 5728 5729 5731 5732 5734 5735 5737 5738 5740 5741 5742 5744 5745 5746 5747 5748 5749 5751 5752 5752 5753 5753 5753 5754 5754 5754 5753 5753 5752 5751 5750
5721 5721 5720 5719 5719 5718 5718 5719 5719 5720 5721 5722 5723 5725 5727 5728 5730 5732 5733 5735 5736 5738 5739 5740 5741 5743 5744 5745 5746 5747 5748 5749 5750 5750 5750 5751 5751 5751 5751 5750 5749 5748 5747